Location: Unspecified
(41.1850°N, 73.2650°W)
Time: 09:32:40
(UTC+00:00)

Daily predictions for brighter satellites

Satellite Brightness Start Highest point End
(mag) Time Altitude Azimuth Time Altitude Azimuth Time Altitude Azimuth
Unknown 4.4 22:35:26 10° WSW 22:39:28 50° NNW 22:43:32 10° NE
Unknown 4.3 22:35:58 10° WSW 22:40:01 51° NNW 22:44:04 10° NE
Unknown 4.4 22:37:02 10° WSW 22:41:04 51° NNW 22:45:07 10° NE
Cosmos 1242 Rocket 4.0 22:38:28 10° NNE 22:41:06 18° ENE 22:43:42 10° ESE
Cosmos 1726 Rocket 3.9 22:38:01 10° SSE 22:42:10 42° E 22:46:19 10° NNE
Atlas Centaur 2 4.5 22:39:02 10° WSW 22:43:20 18° SSW 22:47:06 10° SSE
Unknown 4.4 22:40:15 10° WSW 22:44:17 50° NNW 22:48:20 10° NE
Cosmos 1486 Rocket 4.2 22:41:03 10° NNW 22:46:23 80° WSW 22:51:43 10° SSE
Okean-O 2.9 22:43:37 10° S 22:48:03 77° WSW 22:52:30 10° NNW
Cosmos 1939 Rocket 4.4 22:47:49 10° ESE 22:50:27 17° ENE 22:53:07 10° NNE
Cosmos 1354 Rocket 4.1 22:46:39 10° NNW 22:51:50 57° ENE 22:56:58 10° SSE
Cosmos 2058 Rocket 3.6 22:48:42 10° SSE 22:52:39 35° E 22:56:37 10° NNE
ASTEX 1 3.6 22:48:14 10° NNE 22:53:05 52° E 22:57:54 10° S
COSMOS 2406 4.1 22:48:19 10° N 22:53:18 29° NE 22:58:14 10° ESE
Cosmos 2082 Rocket 4.1 22:51:51 10° NNE 22:53:31 11° NE 22:55:10 10° ENE
Cosmos 2228 3.0 22:50:18 10° S 22:54:38 62° E 22:58:57 10° NNE
Lacrosse 5 rocket 1.6 22:52:52 10° NNW 22:56:28 42° NE 23:00:07 11° ESE
OAO 3 Rocket 4.3 22:52:15 10° SW 22:56:40 33° SSE 23:00:50 11° ESE
OAO 2 Rocket 4.2 22:51:51 10° WSW 22:56:49 42° S 23:01:35 11° ESE
EO 1 Delta rocket 4.4 22:54:11 10° SE 22:58:21 34° ENE 23:02:34 10° N
CSL-04 Debris 4.3 22:55:16 10° SE 23:00:32 53° ENE 23:05:51 10° N
Cosmos 968 Rocket 3.5 22:55:50 10° NNW 23:01:08 79° ENE 23:06:23 10° SSE
CZ-4C R/B 3.1 22:53:53 10° NW 23:01:18 85° SW 23:09:36 10° SSE
FengYun 1-2 T 4.2 22:56:25 10° SSE 23:02:01 71° ENE 23:07:38 10° N
YAOGAN 6 2.6 23:00:07 10° SSE 23:03:44 60° ENE 23:07:21 10° N
Cosmos 1908 4.2 23:00:46 10° SSE 23:04:02 26° E 23:07:19 10° NNE
Ariane Rocket 3.9 23:00:23 10° ESE 23:04:37 27° ENE 23:08:54 10° N
Cosmos 921 Rocket 3.1 23:01:33 10° S 23:06:00 63° ESE 23:10:26 10° NNE
CZ-4 R/B 4.3 23:02:58 10° SSE 23:07:04 76° ENE 23:11:11 10° N
CZ-4 R/B 1.4 23:05:25 10° SSE 23:09:31 78° ENE 23:13:45 10° N
Cosmos 1328 4.2 23:07:07 10° N 23:10:54 39° ENE 23:14:36 10° SSE
Cosmos 1992 Rocket 4.4 23:08:19 10° SSW 23:13:31 67° WNW 23:18:44 10° NNE
COSMO-SKYMED 1 2.8 23:09:28 10° N 23:13:49 76° WNW 23:18:08 10° SSW
Cosmos 1844 Rocket 3.2 23:10:49 10° SW 23:16:24 62° WNW 23:22:01 10° NNE
Cosmos 2084 4.2 23:11:57 10° SW 23:16:25 57° NW 23:20:50 10° NNE
Meteor 2-10 4.0 23:11:32 10° S 23:16:33 57° E 23:21:29 10° NNE
Cosmos 1503 Rocket 4.1 23:11:56 10° NNW 23:17:07 77° WSW 23:22:16 10° SSE
Meteor 1-16 Rocket 4.1 23:12:50 10° S 23:18:27 79° E 23:23:56 10° NNE
Unknown 4.3 23:17:48 10° NNW 23:19:46 18° NNE 23:20:02 18° NE
USA 116 3.1 23:20:00 10° NNE 23:23:08 89° ESE 23:26:28 10° SSW
Cosmos 1821 Rocket 4.3 23:17:50 10° NNW 23:23:55 69° W 23:30:01 10° S
Cosmos 1605 Rocket 4.1 23:18:04 10° N 23:24:04 49° ENE 23:29:58 10° SSE
USA 238 DEB 4.4 23:19:19 10° SSE 23:24:46 28° ESE 23:28:15 18° ENE
USA 238 4.5 23:19:27 10° SSE 23:24:53 27° ESE 23:28:16 18° ENE
Cosmos 1953 Rocket 3.8 23:22:15 10° NNW 23:26:38 70° W 23:30:56 10° S
Cosmos 1727 Rocket 4.4 23:22:36 10° SSE 23:28:11 37° E 23:33:46 10° NNE
H-2A R/B 3.7 23:30:25 17° NE 23:30:25 17° NE 23:33:17 10° NNE
Lacrosse 5 3.6 23:28:11 10° NNW 23:31:41 18° NNE 23:33:32 15° NE
Cosmos 2278 Rocket 2.5 23:27:43 10° S 23:33:02 44° ESE 23:38:24 10° NE
Cosmos 1844 4.5 23:31:08 10° SW 23:36:42 54° WNW 23:42:22 10° NNE
USA 234 4.2 23:35:59 23° ESE 23:37:27 25° SE 23:42:38 10° S
Cosmos 292 Rocket 3.6 23:32:50 10° SSW 23:37:35 83° ESE 23:42:21 10° NNE
Cosmos 1934 Rocket 4.1 23:32:00 10° N 23:38:22 85° W 23:44:44 10° S
CZ-2D R/B 3.1 23:40:02 10° SSE 23:43:51 81° ENE 23:47:43 10° N
Cosmos 482 Debris 3.9 23:39:50 10° NW 23:44:23 58° NNE 23:44:47 53° ENE
ATLAS 5 CENTAUR R/B 3.9 23:43:58 10° W 23:47:16 21° NW 23:50:52 10° N
SL-4 R/B 2.1 23:43:44 10° WNW 23:47:29 60° SW 23:48:39 37° SSE
Cosmos 1356 4.4 23:47:19 10° SSW 23:50:38 48° WNW 23:53:59 10° N
NOSS 3-2 (A) 4.0 23:46:47 10° S 23:51:22 31° ESE 23:51:22 31° ESE
